Location: Kuppenheim
(48.8299°N, 8.2568°E)
Time: 15:29:53
(UTC+00:00)

Cosmos 921 Rocket - Pass Details

Date: 20 June 2021
Orbit: 571 x 632 km, 75.8° (Epoch: 05 August)

Event Time Altitude Azimuth Distance (km) Brightness Sun altitude
Exits shadow 01:32:38 19° 218° (SW) 1,384 4.2 -12.6°
Maximum altitude 01:35:27 58° 293° (WNW) 675 3.2 -12.4°
Drops below altitude 10° 01:39:36 10° 13° (NNE) 1,889 6.9 -12.0°
Sets 01:41:50 0° 18° (NNE) 2,791 8.2 -11.8°
